Time,TemperatureF,DewpointF,PressureIn,WindDirection,WindDirectionDegrees,WindSpeedMPH,WindSpeedGustMPH,Humidity,HourlyPrecipIn,Conditions,Clouds,dailyrainin,SoftwareType,DateUTC
2013-06-06 00:10:00,81.7,77.0,29.92,SSE,154,0.0,13.0,84,0.00,,,0.00,weatherlink.com 1.10,2013-06-06 04:10:00,
2013-06-06 00:26:00,81.5,76.0,29.92,SSE,150,7.0,12.0,84,0.00,,,0.00,weatherlink.com 1.10,2013-06-06 04:26:00,
2013-06-06 00:41:00,81.5,76.0,29.92,SE,127,1.0,15.0,82,0.00,,,0.00,weatherlink.com 1.10,2013-06-06 04:41:00,
2013-06-06 00:56:00,81.7,76.0,29.91,SE,132,1.0,16.0,83,0.00,,,0.00,weatherlink.com 1.10,2013-06-06 04:56:00,
2013-06-06 01:11:00,81.7,76.0,29.90,East,97,4.0,19.0,83,0.00,,,0.00,weatherlink.com 1.10,2013-06-06 05:11:00,
2013-06-06 01:26:00,81.5,76.0,29.89,SE,140,5.0,15.0,83,0.00,,,0.00,weatherlink.com 1.10,2013-06-06 05:26:00,
2013-06-06 01:41:00,81.5,76.0,29.89,South,170,6.0,15.0,84,0.00,,,0.00,weatherlink.com 1.10,2013-06-06 05:41:00,
2013-06-06 01:56:00,81.5,76.0,29.88,ESE,112,3.0,16.0,83,0.00,,,0.00,weatherlink.com 1.10,2013-06-06 05:56:00,
2013-06-06 02:11:00,81.5,76.0,29.87,SSE,150,2.0,14.0,82,0.00,,,0.00,weatherlink.com 1.10,2013-06-06 06:11:00,
2013-06-06 02:26:00,81.7,75.0,29.87,ESE,110,3.0,16.0,81,0.00,,,0.00,weatherlink.com 1.10,2013-06-06 06:26:00,
2013-06-06 02:41:00,81.7,76.0,29.87,SE,129,3.0,16.0,82,0.00,,,0.00,weatherlink.com 1.10,2013-06-06 06:41:00,
2013-06-06 02:56:00,81.5,76.0,29.87,SE,133,4.0,16.0,82,0.00,,,0.00,weatherlink.com 1.10,2013-06-06 06:56:00,
2013-06-06 03:11:00,81.5,76.0,29.86,East,100,3.0,17.0,83,0.00,,,0.00,weatherlink.com 1.10,2013-06-06 07:11:00,
2013-06-06 03:26:00,81.3,77.0,29.85,SE,136,8.0,14.0,85,0.00,,,0.00,weatherlink.com 1.10,2013-06-06 07:26:00,
2013-06-06 03:41:00,81.0,77.0,29.84,SSE,148,4.0,17.0,86,0.00,,,0.00,weatherlink.com 1.10,2013-06-06 07:41:00,
2013-06-06 03:56:00,80.8,77.0,29.84,ESE,115,22.0,22.0,87,0.01,,,0.01,weatherlink.com 1.10,2013-06-06 07:56:00,
2013-06-06 04:11:00,80.6,77.0,29.83,ESE,117,5.0,18.0,87,0.01,,,0.01,weatherlink.com 1.10,2013-06-06 08:11:00,
2013-06-06 04:26:00,80.4,77.0,29.84,ESE,118,12.0,14.0,88,0.02,,,0.02,weatherlink.com 1.10,2013-06-06 08:26:00,
2013-06-06 04:41:00,80.2,77.0,29.83,SE,135,7.0,15.0,89,0.03,,,0.03,weatherlink.com 1.10,2013-06-06 08:41:00,
2013-06-06 05:11:00,79.8,77.0,29.84,SSE,151,4.0,4.0,91,0.09,,,0.10,weatherlink.com 1.10,2013-06-06 09:11:00,
2013-06-06 05:26:00,78.2,75.0,29.84,SE,146,3.0,17.0,90,0.11,,,0.13,weatherlink.com 1.10,2013-06-06 09:26:00,
2013-06-06 05:41:00,77.5,75.0,29.83,SE,146,3.0,12.0,91,0.16,,,0.19,weatherlink.com 1.10,2013-06-06 09:41:00,
2013-06-06 05:56:00,79.7,77.0,29.82,SSE,153,1.0,11.0,92,0.13,,,0.21,weatherlink.com 1.10,2013-06-06 09:56:00,
2013-06-06 06:26:00,80.0,78.0,29.82,SE,133,1.0,5.0,92,0.07,,,0.22,weatherlink.com 1.10,2013-06-06 10:26:00,
2013-06-06 06:56:00,80.0,77.0,29.81,SSE,165,2.0,13.0,91,0.01,,,0.22,weatherlink.com 1.10,2013-06-06 10:56:00,
2013-06-06 07:11:00,79.7,77.0,29.81,SSE,164,0.0,19.0,90,0.03,,,0.24,weatherlink.com 1.10,2013-06-06 11:11:00,
2013-06-06 07:26:00,79.3,77.0,29.82,SSE,155,1.0,13.0,91,0.02,,,0.24,weatherlink.com 1.10,2013-06-06 11:26:00,
2013-06-06 07:41:00,79.7,77.0,29.82,South,191,0.0,13.0,90,0.02,,,0.24,weatherlink.com 1.10,2013-06-06 11:41:00,
2013-06-06 07:56:00,80.2,77.0,29.81,SSE,162,3.0,13.0,89,0.02,,,0.24,weatherlink.com 1.10,2013-06-06 11:56:00,
2013-06-06 08:11:00,80.6,78.0,29.83,South,170,5.0,16.0,90,0.00,,,0.24,weatherlink.com 1.10,2013-06-06 12:11:00,
2013-06-06 08:26:00,80.8,78.0,29.85,SSE,152,0.0,11.0,90,0.00,,,0.24,weatherlink.com 1.10,2013-06-06 12:26:00,
2013-06-06 08:41:00,81.0,78.0,29.85,South,169,3.0,10.0,90,0.00,,,0.24,weatherlink.com 1.10,2013-06-06 12:41:00,
2013-06-06 08:56:00,81.0,78.0,29.86,SSE,168,0.0,12.0,89,0.00,,,0.24,weatherlink.com 1.10,2013-06-06 12:56:00,
2013-06-06 09:11:00,81.3,78.0,29.86,South,169,1.0,13.0,88,0.00,,,0.24,weatherlink.com 1.10,2013-06-06 13:11:00,
2013-06-06 09:27:00,81.5,78.0,29.87,South,176,0.0,16.0,88,0.00,,,0.24,weatherlink.com 1.10,2013-06-06 13:27:00,
2013-06-06 09:56:00,82.3,78.0,29.87,SSW,198,1.0,13.0,86,0.00,,,0.24,weatherlink.com 1.10,2013-06-06 13:56:00,
2013-06-06 10:11:00,82.9,78.0,29.87,SSE,167,2.0,19.0,85,0.00,,,0.24,weatherlink.com 1.10,2013-06-06 14:11:00,
2013-06-06 10:26:00,83.5,78.0,29.87,SSE,164,0.0,17.0,83,0.00,,,0.24,weatherlink.com 1.10,2013-06-06 14:26:00,
2013-06-06 10:56:00,84.6,77.0,29.87,SSW,204,0.0,17.0,79,0.00,,,0.24,weatherlink.com 1.10,2013-06-06 14:56:00,
2013-06-06 11:11:00,84.8,77.0,29.87,South,182,0.0,25.0,78,0.00,,,0.24,weatherlink.com 1.10,2013-06-06 15:11:00,
2013-06-06 11:26:00,84.8,77.0,29.87,SSE,164,7.0,16.0,77,0.00,,,0.24,weatherlink.com 1.10,2013-06-06 15:26:00,
2013-06-06 11:41:00,84.8,77.0,29.86,SW,218,12.0,20.0,77,0.00,,,0.24,weatherlink.com 1.10,2013-06-06 15:41:00,
2013-06-06 11:56:00,84.6,77.0,29.87,South,183,7.0,16.0,77,0.00,,,0.24,weatherlink.com 1.10,2013-06-06 15:56:00,
2013-06-06 12:11:00,85.0,77.0,29.86,South,173,2.0,24.0,77,0.00,,,0.24,weatherlink.com 1.10,2013-06-06 16:11:00,
2013-06-06 12:26:00,85.4,77.0,29.86,NE,53,3.0,13.0,75,0.00,,,0.24,weatherlink.com 1.10,2013-06-06 16:26:00,
2013-06-06 12:41:00,86.2,76.0,29.85,South,181,9.0,25.0,71,0.00,,,0.24,weatherlink.com 1.10,2013-06-06 16:41:00,
2013-06-06 12:56:00,86.0,76.0,29.84,SSE,164,2.0,18.0,71,0.00,,,0.24,weatherlink.com 1.10,2013-06-06 16:56:00,
2013-06-06 13:12:00,86.2,76.0,29.85,SSE,156,12.0,22.0,71,0.00,,,0.24,weatherlink.com 1.10,2013-06-06 17:12:00,
2013-06-06 13:26:00,86.2,76.0,29.84,South,186,11.0,22.0,71,0.00,,,0.24,weatherlink.com 1.10,2013-06-06 17:26:00,
2013-06-06 13:42:00,87.1,76.0,29.84,SSE,162,5.0,27.0,69,0.00,,,0.24,weatherlink.com 1.10,2013-06-06 17:42:00,
2013-06-06 13:56:00,86.2,76.0,29.84,SSW,202,8.0,19.0,71,0.00,,,0.24,weatherlink.com 1.10,2013-06-06 17:56:00,
2013-06-06 14:11:00,87.1,76.0,29.83,SSE,165,21.0,27.0,70,0.00,,,0.24,weatherlink.com 1.10,2013-06-06 18:11:00,
2013-06-06 14:27:00,87.3,77.0,29.82,SSW,211,10.0,15.0,71,0.00,,,0.24,weatherlink.com 1.10,2013-06-06 18:27:00,
2013-06-06 14:42:00,86.4,76.0,29.82,South,179,8.0,20.0,71,0.00,,,0.24,weatherlink.com 1.10,2013-06-06 18:42:00,
2013-06-06 14:57:00,86.9,77.0,29.82,SE,142,4.0,22.0,72,0.00,,,0.24,weatherlink.com 1.10,2013-06-06 18:57:00,
2013-06-06 15:12:00,87.5,77.0,29.81,South,174,2.0,22.0,70,0.00,,,0.24,weatherlink.com 1.10,2013-06-06 19:12:00,
2013-06-06 15:27:00,86.2,77.0,29.81,SSE,163,11.0,23.0,73,0.00,,,0.24,weatherlink.com 1.10,2013-06-06 19:27:00,
2013-06-06 15:42:00,84.8,78.0,29.81,SSW,198,3.0,19.0,79,0.00,,,0.24,weatherlink.com 1.10,2013-06-06 19:42:00,
2013-06-06 15:57:00,85.4,77.0,29.80,South,182,5.0,22.0,77,0.00,,,0.24,weatherlink.com 1.10,2013-06-06 19:57:00,
2013-06-06 16:12:00,85.8,77.0,29.80,South,183,5.0,19.0,74,0.00,,,0.24,weatherlink.com 1.10,2013-06-06 20:12:00,
2013-06-06 16:27:00,86.0,76.0,29.80,SSW,202,2.0,22.0,72,0.00,,,0.24,weatherlink.com 1.10,2013-06-06 20:27:00,
2013-06-06 16:42:00,86.4,76.0,29.80,SSW,206,7.0,17.0,72,0.00,,,0.24,weatherlink.com 1.10,2013-06-06 20:42:00,
2013-06-06 16:57:00,85.0,74.0,29.79,SW,230,12.0,31.0,70,0.01,,,0.25,weatherlink.com 1.10,2013-06-06 20:57:00,
2013-06-06 17:12:00,83.5,77.0,29.79,SSW,201,9.0,19.0,81,0.02,,,0.26,weatherlink.com 1.10,2013-06-06 21:12:00,
2013-06-06 17:27:00,80.6,75.0,29.81,SW,231,10.0,18.0,83,0.02,,,0.26,weatherlink.com 1.10,2013-06-06 21:27:00,
2013-06-06 17:42:00,78.0,72.0,29.82,SSW,210,9.0,13.0,82,0.03,,,0.27,weatherlink.com 1.10,2013-06-06 21:42:00,
2013-06-06 17:57:00,76.7,72.0,29.83,SSE,168,0.0,9.0,85,0.10,,,0.35,weatherlink.com 1.10,2013-06-06 21:57:00,
2013-06-06 18:12:00,76.4,72.0,29.82,SSW,197,0.0,6.0,87,0.09,,,0.35,weatherlink.com 1.10,2013-06-06 22:12:00,
2013-06-06 18:42:00,76.2,73.0,29.83,SW,218,0.0,6.0,89,0.07,,,0.35,weatherlink.com 1.10,2013-06-06 22:42:00,
2013-06-06 18:57:00,76.2,73.0,29.82,SSE,166,0.0,7.0,89,0.00,,,0.35,weatherlink.com 1.10,2013-06-06 22:57:00,
2013-06-06 19:12:00,76.4,73.0,29.83,South,176,0.0,7.0,90,0.02,,,0.37,weatherlink.com 1.10,2013-06-06 23:12:00,
2013-06-06 19:27:00,76.0,73.0,29.83,SSW,206,0.0,7.0,91,0.07,,,0.42,weatherlink.com 1.10,2013-06-06 23:27:00,
2013-06-06 19:42:00,75.7,73.0,29.83,South,174,2.0,4.0,91,0.11,,,0.46,weatherlink.com 1.10,2013-06-06 23:42:00,
2013-06-06 19:57:00,75.5,73.0,29.83,SSE,160,0.0,12.0,92,0.11,,,0.46,weatherlink.com 1.10,2013-06-06 23:57:00,
2013-06-06 20:12:00,75.3,73.0,29.84,SSE,166,4.0,17.0,92,0.10,,,0.47,weatherlink.com 1.10,2013-06-07 00:12:00,
2013-06-06 20:27:00,75.5,73.0,29.83,South,191,7.0,16.0,92,0.05,,,0.47,weatherlink.com 1.10,2013-06-07 00:27:00,
2013-06-06 20:42:00,76.0,74.0,29.83,South,173,9.0,17.0,92,0.01,,,0.47,weatherlink.com 1.10,2013-06-07 00:42:00,
2013-06-06 20:57:00,76.4,74.0,29.84,SSW,193,6.0,14.0,92,0.02,,,0.48,weatherlink.com 1.10,2013-06-07 00:57:00,
2013-06-06 21:12:00,76.6,74.0,29.86,SSW,212,5.0,12.0,92,0.01,,,0.48,weatherlink.com 1.10,2013-06-07 01:12:00,
2013-06-06 21:27:00,76.2,74.0,29.86,SSW,206,0.0,16.0,92,0.01,,,0.48,weatherlink.com 1.10,2013-06-07 01:27:00,
2013-06-06 21:44:00,76.4,74.0,29.87,SSW,201,0.0,7.0,91,0.01,,,0.48,weatherlink.com 1.10,2013-06-07 01:44:00,
2013-06-06 21:57:00,76.4,74.0,29.86,SSW,201,0.0,5.0,91,0.00,,,0.48,weatherlink.com 1.10,2013-06-07 01:57:00,
2013-06-06 22:12:00,76.4,74.0,29.86,South,173,0.0,5.0,91,0.00,,,0.48,weatherlink.com 1.10,2013-06-07 02:12:00,
2013-06-06 22:27:00,76.4,74.0,29.87,South,179,0.0,6.0,91,0.00,,,0.48,weatherlink.com 1.10,2013-06-07 02:27:00,
2013-06-06 22:42:00,76.6,74.0,29.87,South,181,0.0,5.0,91,0.00,,,0.48,weatherlink.com 1.10,2013-06-07 02:42:00,
2013-06-06 22:57:00,76.4,74.0,29.88,South,181,0.0,0.0,91,0.00,,,0.48,weatherlink.com 1.10,2013-06-07 02:57:00,
2013-06-06 23:12:00,76.4,74.0,29.87,South,181,0.0,4.0,91,0.00,,,0.48,weatherlink.com 1.10,2013-06-07 03:12:00,
2013-06-06 23:27:00,76.2,74.0,29.87,South,181,0.0,3.0,91,0.00,,,0.48,weatherlink.com 1.10,2013-06-07 03:27:00,
2013-06-06 23:42:00,76.0,74.0,29.87,South,181,1.0,3.0,92,0.00,,,0.48,weatherlink.com 1.10,2013-06-07 03:42:00,
2013-06-06 23:57:00,75.9,74.0,29.86,South,181,3.0,5.0,92,0.00,,,0.48,weatherlink.com 1.10,2013-06-07 03:57:00,